North Springfield, VT

1:13 AM EDT on September 25, 2016 (GMT -0400)
Hartness State

Weather History for KVSF - January, 2013

Change the Weather History Date:

Wednesday, January 16, 2013

  Actual Average Record
Temperature  
Mean Temperature 27 °F 19 °F  
Max Temperature 29 °F 29 °F 38 °F (2016)
Min Temperature 25 °F 9 °F -18 °F (2009)
Degree Days  
Heating Degree Days 38 46  
Month to date heating degree days 621 725  
Since 1 July heating degree days 3027 3588  
Cooling Degree Days 0 0  
Month to date cooling degree days 0  
Year to date cooling degree days 0  
Moisture  
Dew Point 26 °F    
Average Humidity 84    
Maximum Humidity 92    
Minimum Humidity 75    
Precipitation  
Precipitation 0.24 in 0.09 in 0.32 in (1997)
Month to date precipitation 0.34 1.74  
Year to date precipitation 0.34 1.74  
Sea Level Pressure  
Sea Level Pressure 29.96 in    
Wind  
Wind Speed 0 mph (North)    
Max Wind Speed 5 mph    
Max Gust Speed 5 mph    
Visibility 2 miles    
Events Fog , Snow    
T = Trace of Precipitation, MM = Missing Value Source: NWS Daily Summary

Daily Weather History Graph

Daily Weather History Graph

Search for Another Location

Airport or City:

Trip Planner

Search our weather history database for the weather conditions in past years. The results will help you decide how hot, cold, wet, or windy it might be!

Date:

Astronomy

Jan. 16, 2013 Rise Set
Actual Time 7:18 AM EST 4:41 PM EST
Civil Twilight 6:47 AM EST 5:12 PM EST
Nautical Twilight 6:12 AM EST 5:48 PM EST
Astronomical Twilight 5:38 AM EST 6:22 PM EST
Moon 9:43 AM EST (1/16) 10:41 PM EST (1/16)
Length of Visible Light 10h 25m
Length of Day
9h 22m
Waxing Crescent, 28% of the Moon is Illuminated
Jan 16
Waxing Crescent
Jan 18
First Quarter
Jan 26
Full
Feb 3
Last Quarter
Feb 10
New

Hourly Weather History & Observations

Time (EST) Temp. Dew Point Humidity Pressure Visibility Wind Dir Wind Speed Gust Speed Precip Events Conditions
1:54 AM 28.0 °F 21.9 °F 78% 30.23 in 9.0 mi Calm Calm - N/A   Overcast
2:54 AM 28.0 °F 21.9 °F 78% 30.22 in 9.0 mi Calm Calm - N/A   Overcast
3:54 AM 27.0 °F 21.9 °F 81% 30.18 in 9.0 mi Calm Calm - N/A   Overcast
4:54 AM 27.0 °F 23.0 °F 85% 30.16 in 1.5 mi Calm Calm - 0.00 in Snow Light Snow
5:51 AM 26.6 °F 24.8 °F 93% 30.10 in 0.8 mi Calm Calm - 0.02 in Snow Light Snow
5:54 AM 27.0 °F 25.0 °F 92% 30.13 in 0.8 mi Calm Calm - 0.03 in Snow Light Snow
5:59 AM 26.6 °F 24.8 °F 93% 30.11 in 1.0 mi Calm Calm - 0.00 in Snow Light Snow
6:54 AM 27.0 °F 25.0 °F 92% 30.13 in 1.5 mi Calm Calm - 0.03 in Snow Light Snow
7:06 AM 26.6 °F 24.8 °F 93% 30.11 in 2.5 mi Calm Calm - 0.00 in Snow Light Snow
7:23 AM 28.4 °F 26.6 °F 93% 30.09 in 1.2 mi Calm Calm - 0.01 in Snow Light Snow
7:44 AM 28.4 °F 24.8 °F 86% 30.09 in 0.5 mi Calm Calm - 0.02 in Fog , Snow Snow
7:54 AM 28.0 °F 26.1 °F 92% 30.12 in 0.5 mi Calm Calm - 0.03 in Fog , Snow Snow
8:16 AM 26.6 °F 26.6 °F 100% 30.08 in 0.8 mi Calm Calm - 0.01 in Snow Light Snow
8:54 AM 28.0 °F 25.0 °F 88% 30.10 in 0.5 mi Calm Calm - 0.03 in Fog , Snow Snow
9:11 AM 28.4 °F 26.6 °F 93% 30.07 in 1.0 mi Calm Calm - 0.00 in Snow Light Snow
9:36 AM 28.4 °F 24.8 °F 86% 30.02 in 2.0 mi Calm Calm - 0.01 in Snow Light Snow
9:54 AM 28.9 °F 25.0 °F 85% 30.05 in 2.5 mi Calm Calm - 0.01 in Snow Light Snow
10:03 AM 28.4 °F 24.8 °F 86% 30.02 in 4.0 mi Calm Calm - 0.00 in Snow Light Snow
10:15 AM 28.4 °F 24.8 °F 86% 30.02 in 1.8 mi Calm Calm - 0.00 in Snow Light Snow
10:21 AM 28.4 °F 24.8 °F 86% 30.02 in 1.2 mi Calm Calm - 0.00 in Snow Light Snow
10:54 AM 28.0 °F 26.1 °F 92% 30.01 in 1.0 mi Calm Calm - 0.01 in Snow Light Snow
11:06 AM 28.4 °F 26.6 °F 93% 29.97 in 0.8 mi Calm Calm - 0.00 in Snow Light Snow
11:13 AM 28.4 °F 26.6 °F 93% 29.97 in 1.0 mi Calm Calm - 0.01 in Snow Light Snow
11:23 AM 28.4 °F 26.6 °F 93% 29.96 in 0.8 mi Calm Calm - 0.01 in Snow Light Snow
11:31 AM 28.4 °F 26.6 °F 93% 29.96 in 0.5 mi Calm Calm - 0.02 in Fog , Snow Snow
11:43 AM 28.4 °F 26.6 °F 93% 29.96 in 0.5 mi Calm Calm - 0.02 in Fog , Snow Snow
11:54 AM 28.9 °F 26.1 °F 89% 29.97 in 0.8 mi Calm Calm - 0.03 in Snow Light Snow
12:24 PM 28.4 °F 26.6 °F 93% 29.93 in 0.8 mi Calm Calm - 0.01 in Snow Light Snow
12:34 PM 28.4 °F 26.6 °F 93% 29.93 in 1.0 mi Calm Calm - 0.02 in Snow Light Snow
12:54 PM 28.9 °F 26.1 °F 89% 29.95 in 0.8 mi Calm Calm - 0.02 in Snow Light Snow
1:45 PM 28.4 °F 26.6 °F 93% 29.86 in 1.0 mi Calm Calm - 0.02 in Snow Light Snow
1:54 PM 28.9 °F 26.1 °F 89% 29.89 in 1.5 mi Calm Calm - 0.02 in Snow Light Snow
3:42 PM 28.4 °F 26.6 °F 93% 29.85 in 2.0 mi Calm Calm - 0.01 in Snow Light Snow
3:54 PM 28.9 °F 27.0 °F 92% 29.87 in 2.5 mi Calm Calm - 0.01 in Snow Light Snow
4:33 PM 28.4 °F 26.6 °F 93% 29.84 in 4.0 mi Calm Calm - 0.01 in   Overcast
4:54 PM 28.9 °F 27.0 °F 92% 29.86 in 5.0 mi Calm Calm - 0.01 in Snow Light Snow
5:36 PM 28.4 °F 26.6 °F 93% 29.82 in 5.0 mi Calm Calm - 0.00 in Snow Light Snow
5:54 PM 28.0 °F 27.0 °F 96% 29.84 in 6.0 mi Calm Calm - 0.00 in   Overcast
6:54 PM 28.9 °F 27.0 °F 92% 29.85 in 5.0 mi Calm Calm - N/A   Overcast
7:54 PM 28.9 °F 27.0 °F 92% 29.84 in 6.0 mi Calm Calm - N/A   Overcast
8:54 PM 28.9 °F 27.0 °F 92% 29.83 in 6.0 mi Calm Calm - N/A   Overcast
9:33 PM 28.4 °F 26.6 °F 93% 29.80 in 4.0 mi Calm Calm - N/A   Overcast
9:54 PM 28.9 °F 27.0 °F 92% 29.82 in 4.0 mi Calm Calm - N/A   Overcast
10:35 PM 26.6 °F 26.6 °F 100% 29.80 in 2.0 mi Calm Calm - N/A   Overcast
10:54 PM 27.0 °F 25.0 °F 92% 29.82 in 1.5 mi Calm Calm - N/A   Mostly Cloudy
11:01 PM 26.6 °F 24.8 °F 93% 29.80 in 1.8 mi Calm Calm - N/A   Mostly Cloudy
11:03 PM 26.6 °F 24.8 °F 93% 29.79 in 2.5 mi Calm Calm - N/A   Mostly Cloudy
11:17 PM 26.6 °F 24.8 °F 93% 29.80 in 0.8 mi Calm Calm - N/A   Mostly Cloudy
11:32 PM 24.8 °F 23.0 °F 93% 29.79 in 0.2 mi Calm Calm - N/A Fog Light Freezing Fog
11:54 PM 26.1 °F 24.1 °F 92% 29.82 in 0.2 mi Calm Calm - N/A Fog Light Freezing Fog